Powrót do katalogu

STARLINK-31660

AktywnyŁącznośćVLEO
NORAD 59642·PAYLOAD·🇺🇸 United States

Wystrzelony May 3, 2024 z Cape Canaveral Space Force Station

Loading…

Następne Przeloty (najbliższe 24 godziny)

TLE

ŚwieżeSource: CelesTrak SupGP

Epoka: Sep 15, 2026, 02:21 UTC

1 59642C 24082M   26258.09840278  .00049077  00000+0  17773-2 0  2584
2 59642  42.9997 109.7542 0001372 276.2418 231.3419 15.27559492    12

Śledź STARLINK-31660 w czasie rzeczywistym z AllMySat

Download on the App Store